User: anonymous   Login
Location: Meanaryar
(48.4161°N, 4.7315°W)
Time: 06:31:51
(UTC+00:00)
Language:

Cosmos 1842 - Orbit

View from above orbital plane
View from above orbital plane
View from above satellite
View from above satellite

Ground track
Ground track

The orbit data is extracted from the following two-line orbital elements,

1 17911U 87038A   21134.35128710  .00001011  00000-0  56074-4 0  9992
2 17911  82.5245 236.4886 0011322  15.2700 344.8870 15.12621389857156
Epoch (UTC): 14 May 2021 08:25:51
Eccentricity: 0.0011322
inclination: 82.5245°
perigee height: 520 km
apogee height: 536 km
right ascension of ascending node: 236.4886°
argument of perigee: 15.2700°
revolutions per day: 15.12621389
mean anomaly at epoch: 344.8870°
orbit number at epoch: 85715

The dashed part of the orbit path shows where the satellite is in the earth's shadow,  

DLR